Location: Beers
(53.1571°N, 5.7344°E)
Time: 23:39:51
(UTC+00:00)

Daily predictions for brighter satellites

Satellite Brightness Start Highest point End
(mag) Time Altitude Azimuth Time Altitude Azimuth Time Altitude Azimuth
BREEZE-M DEB (TANK) 4.0 20:49:28 10° WSW 20:53:37 60° SSE 21:09:24 10° E
Spot 2 Rocket 3.8 20:58:13 10° S 21:03:17 69° WSW 21:08:24 10° NNW
Cosmos 1408 3.7 21:01:54 10° SE 21:04:08 20° E 21:06:25 10° NE
SPOT 3 Rocket 3.7 21:00:05 10° S 21:05:15 76° WSW 21:10:28 10° NNW
Iridium 51 4.5 21:07:19 10° S 21:11:33 83° W 21:15:31 10° N
GENESIS II 4.4 21:09:32 10° SW 21:13:09 69° NW 21:16:48 10° NE
SeaSat 1 2.7 21:09:05 10° SSE 21:13:58 64° WSW 21:18:52 10° NW
Cosmos 1174 4.2 21:10:52 10° NW 21:16:02 82° NE 21:20:06 10° SE
Cosmos 2360 Rocket 4.5 21:14:04 10° WNW 21:17:27 16° W 21:20:49 10° SW
Cosmos 1953 2.9 21:14:17 10° NNW 21:18:00 50° W 21:21:41 10° S
Cosmos 158 Rocket 4.3 21:12:46 10° NNW 21:18:01 66° WSW 21:23:05 10° SSE
Cosmos 1908 Rocket 3.9 21:13:57 10° NNW 21:18:15 63° W 21:22:30 10° S
COSMOS 2428 3.3 21:13:27 10° NW 21:18:58 53° WSW 21:24:30 10° S
Cosmos 2208 Rocket 4.3 21:14:29 10° NNW 21:19:36 62° WSW 21:24:42 10° S
Cosmos 1782 Rocket 3.5 21:17:53 10° N 21:22:14 80° ENE 21:26:35 10° SSE
Cosmos 1300 Rocket 3.6 21:23:15 10° N 21:27:35 76° ENE 21:31:51 10° SSE
CENTAUR R/B 3.7 21:23:55 10° SSE 21:28:12 22° ESE 21:33:07 10° ENE
Ariane Rocket 3.9 21:23:53 10° S 21:28:47 46° W 21:33:42 10° NNW
EXPRESS MD2 3.1 21:27:22 10° W 21:29:33 26° SSW 21:30:59 14° SE
Cosmos 2084 Rocket 3.9 21:29:04 10° SSW 21:33:01 37° SE 21:36:50 10° ENE
Cosmos 1486 Rocket 4.0 21:33:38 10° S 21:38:45 64° ESE 21:43:56 10° NNE
Cosmos 1315 Rocket 4.1 21:36:21 10° SW 21:40:08 41° WNW 21:43:57 10° N
Cosmos 405 Rocket 3.4 21:37:03 10° N 21:40:40 41° ENE 21:43:50 13° SE
GP-B 3.1 21:38:21 10° N 21:42:47 78° E 21:47:06 11° S
NOSS 8 (F) 4.3 21:40:05 10° SW 21:43:46 85° NW 21:46:46 10° NE
BREEZE-M DEB (TANK) 1.8 21:40:03 10° W 21:45:05 87° S 21:47:16 10° E
MetOp-A 4.3 21:40:10 10° S 21:45:24 66° WSW 21:50:30 10° NNW
ARIANE 5 R/B 2.9 21:41:49 12° SE 21:45:42 56° ENE 21:50:01 10° N
SJ 16-02 3.6 21:43:42 10° WSW 21:47:23 27° NW 21:51:07 10° N
BlueWalker 3 1.8 21:44:50 10° WSW 21:48:35 84° SSE 21:52:20 10° E
SL-4 R/B 4.0 21:47:01 10° WSW 21:49:12 14° SW 21:51:25 10° S
USA 234 3.5 21:42:59 10° ENE 21:49:14 46° SE 21:55:28 10° SSW
Cosmos 371 Rocket 3.3 21:45:16 10° SSW 21:50:02 69° ESE 21:54:52 10° NNE
Terra 3.8 21:50:26 10° SW 21:54:10 23° W 21:57:56 10° NW
Spot 1 4.5 21:49:38 10° NNE 21:54:20 79° WNW 21:59:15 10° SSW
NOSS 8 (A) 4.4 21:55:17 10° NW 21:58:10 58° SW 22:00:43 16° SSE
SL-16 R/B 2.7 21:52:58 10° NNW 21:58:37 56° NE 22:04:11 10° SE
Landsat 5 3.8 21:55:46 10° N 21:59:51 68° WNW 22:04:04 10° SSW
H-2A R/B 3.2 21:56:27 13° SE 22:00:02 44° ENE 22:04:00 10° N
Cosmos 2237 Rocket 2.5 21:54:33 10° NW 22:00:08 60° WSW 22:05:00 14° SSE
Cosmos 1354 Rocket 4.4 21:55:11 10° S 22:00:11 49° ESE 22:05:17 10° NE
COSMOS 2455 2.9 21:59:15 10° SW 22:05:18 88° NW 22:11:23 10° NE
Cosmos 1242 Rocket 4.3 22:03:52 10° WSW 22:05:59 20° WNW 22:08:08 10° NNW
Cosmos 1745 Rocket 4.2 21:59:46 10° SSW 22:06:08 79° WNW 22:12:33 10° N
USA 281 3.3 22:00:04 12° SE 22:06:12 81° ENE 22:12:50 10° NNW
CZ-4C R/B 2.0 22:02:41 10° SW 22:07:22 84° SE 22:13:24 10° NE
Cosmos 2227 Rocket 2.7 22:03:20 12° S 22:08:09 41° ESE 22:13:26 10° NE
Meteor 2-5 Rocket 3.9 22:05:17 12° S 22:10:39 65° E 22:16:21 10° NNE
Cosmos 2151 Rocket 3.9 22:06:23 10° N 22:10:44 57° ENE 22:14:08 16° SSE
Cosmos 1980 4.4 22:09:11 10° NW 22:14:34 46° WSW 22:19:14 14° S
Okean 2 Rocket 3.4 22:10:59 10° N 22:15:26 58° ENE 22:18:55 16° SSE
Cosmos 304 Rocket 3.8 22:14:27 10° SSW 22:19:14 83° WNW 22:24:02 10° NNE
Cosmos 2297 Rocket 2.2 22:21:24 10° SSW 22:27:03 89° WNW 22:32:45 10° NNE
ALOS 2 3.0 22:25:43 16° SE 22:29:08 55° ENE 22:33:26 10° N
MINOTAUR 4 R/B 3.6 22:26:55 10° NNE 22:29:47 60° ESE 22:31:27 22° S
CZ-2C R/B 3.7 22:28:38 10° NNE 22:33:05 85° WNW 22:37:08 13° SSW
Cosmos 2098 Rocket 4.1 22:27:20 10° NNW 22:33:54 73° W 22:38:52 15° S
Cosmos 1461 4.3 22:34:55 17° SE 22:36:07 19° ESE 22:38:57 10° ENE
Cosmos 1703 3.6 22:33:06 12° SSW 22:36:23 57° WNW 22:40:02 10° N
Cosmos 1408 4.0 22:34:07 10° SW 22:36:42 26° WNW 22:39:18 10° N
Cosmos 2181 Rocket 4.0 22:30:37 10° N 22:36:49 87° W 22:41:46 16° S
NOSS 3-2 (A) 3.9 22:33:40 16° S 22:37:16 35° ESE 22:42:48 10° NE
Cosmos 2074 Rocket 4.4 22:33:32 16° SSE 22:38:20 52° E 22:44:21 10° NNE
Cosmos 2219 3.7 22:37:54 17° S 22:41:52 42° ESE 22:47:08 10° NE
H-2A R/B 3.9 22:40:10 10° NE 22:42:56 17° E 22:45:13 12° SE
Cosmos 1777 Rocket 4.2 22:39:50 10° SSW 22:45:06 75° WNW 22:50:25 10° NNE
Orbus 7S? 3.0 22:42:18 10° WNW 22:45:10 62° NNE 22:47:58 10° ESE
Cosmos 332 Rocket 3.8 22:41:58 13° SSW 22:46:24 82° ESE 22:51:20 10° NNE
BREEZE-M DEB (TANK) 4.0 22:43:05 10° W 22:46:26 56° S 22:56:49 10° ESE
Cosmos 1825 2.0 22:44:58 22° S 22:46:59 60° E 22:50:22 10° NNE
Cosmos 2263 Rocket 3.0 22:44:08 17° SSE 22:47:39 34° ESE 22:52:38 10° NE
Meteor 1-24 Rocket 3.9 22:42:45 11° SSW 22:48:13 72° WNW 22:53:42 10° N
Cosmos 2221 Rocket 3.6 22:46:44 19° S 22:49:53 70° E 22:54:18 10° NNE
Sich 1 Rocket 3.7 22:48:39 10° NNW 22:53:00 65° W 22:56:04 19° S
Okean 1 Rocket 3.0 22:50:06 10° N 22:54:30 88° E 22:57:31 20° S
Cosmos 1538 Rocket 4.1 22:49:48 10° NNW 22:55:01 71° WSW 22:58:51 19° SSE
PSLV R/B 4.1 22:51:31 10° N 22:55:29 67° WNW 22:58:45 15° SSW
Cosmos 1263 4.2 22:53:59 10° NNW 22:57:11 70° W 22:58:45 25° S
Cosmos 1818 3.6 22:54:43 10° NW 23:00:13 74° SW 23:04:38 16° SSE
Cosmos 1892 2.5 23:03:07 20° SSW 23:05:25 74° WNW 23:08:58 10° N
Spot 4 4.2 23:03:31 18° S 23:06:55 54° W 23:11:41 10° NNW
Cosmos 2084 Rocket 4.4 23:07:56 10° WSW 23:12:03 48° NNW 23:16:02 10° NE
Nadezhda 3 Rocket 4.0 23:06:38 10° N 23:12:55 86° E 23:17:41 18° S
Cosmos 1937 Rocket 4.5 23:09:52 18° SSE 23:13:03 33° ESE 23:17:42 10° NE
Cosmos 1025 Rocket 3.2 23:12:05 21° S 23:14:49 60° E 23:19:03 10° NNE
CENTAUR R/B 2.6 23:11:43 10° SW 23:17:37 83° SE 23:25:03 10° NE
Cosmos 1975 Rocket 4.0 23:15:39 18° SSE 23:18:24 36° E 23:22:28 10° NNE
Cosmos 923 Rocket 4.0 23:16:46 10° NNW 23:22:04 88° WSW 23:26:02 18° SSE
ARIANE 5 R/B 4.4 23:19:17 11° SW 23:22:27 21° W 23:25:47 10° NW
Cosmos 1455 Rocket 3.1 23:19:14 10° N 23:23:43 78° ENE 23:26:44 20° SSE
BlueWalker 3 1.7 23:23:01 10° W 23:26:46 85° S 23:30:32 10° ESE
Cosmos 1328 3.8 23:25:24 21° SSW 23:27:54 78° WNW 23:31:49 10° N
Cosmos 1898 Rocket 3.7 23:25:19 20° S 23:28:50 57° ESE 23:33:53 10° NNE
Aureole 1 Rocket 3.2 23:26:54 21° SSW 23:29:41 72° ESE 23:35:00 10° NNE
Cosmos 1869 4.2 23:26:17 10° N 23:29:46 38° ENE 23:32:26 15° SE
Cosmos 2184 Rocket 4.2 23:26:26 16° SSW 23:31:38 77° W 23:38:05 10° N
Meteor 1-21 Rocket 4.3 23:27:43 19° S 23:31:53 71° E 23:37:28 10° NNE
USA 234 3.3 23:26:03 10° ENE 23:32:39 86° NNW 23:39:11 10° WSW
Cosmos 1674 Rocket 4.4 23:29:17 14° SW 23:32:47 44° WNW 23:36:57 10° N
H-2A R/B 4.0 23:32:26 14° SW 23:35:07 25° W 23:38:37 10° NW
SL-16 R/B 3.2 23:37:27 10° NW 23:42:30 34° WSW 23:46:02 18° SSW
Cosmos 2237 Rocket 4.4 23:41:15 10° WNW 23:43:01 11° W 23:44:47 10° WSW
Cosmos 2228 4.1 23:40:05 10° N 23:44:09 39° ENE 23:47:43 13° SE
Cosmos 1603 3.9 23:42:34 10° NNW 23:48:22 75° ENE 23:54:05 10° SE
Cosmos 1943 3.2 23:43:41 10° NNW 23:49:19 77° WSW 23:53:53 16° SSE
Cosmos 2154 Rocket 4.2 23:45:18 16° SSW 23:50:22 69° WNW 23:56:42 10° N
SL-8 Rocket 4.4 23:46:22 17° SSE 23:51:04 54° E 23:57:08 10° NNE
USA 281 4.5 23:46:56 14° SSW 23:51:22 27° W 23:56:50 10° NW
PSLV R/B 3.6 23:47:50 10° NNE 23:52:03 74° WNW 23:54:55 19° SSW
Meteor 2-1 Rocket 4.3 23:46:10 10° NNW 23:52:05 90° W 23:56:34 18° S
Cosmos 2227 Rocket 3.1 23:46:44 10° WSW 23:52:11 47° NW 23:57:40 10° NNE
Cosmos 1867 4.5 23:50:22 19° S 23:53:32 33° ESE 23:58:25 10° NE
Helios 1A Rocket 4.3 23:52:32 10° SE 23:55:54 31° ENE 23:59:18 10° N
